(°C)
(°C)
ЮЗ
ЮЗ
ЮЗ
ЮЗ
ЮЗ
ЮЗ
ЗЮЗ
(км/ч)
9-19
8-17
7-16
7-15
6-13
6-12
5-11
(мм)
0
0
0
0
0
0
0.2
(%)
1
1
2
13
24
35
58

Высота солнцестояния

/ -39.9°
sun-icon
UV 2
07:18
17:07
Убывающая луна (198°)
18:46
08:43

METAR для Wilmington Manor (KILG)

Время Условия Температура/
Точка росы
Ветер Видимость Погода Облачность Давление Изменить Необработанный
VFR 7.2°C / -2.2°C 200º 7kt >10km - Clear 1016 - KILG 200051Z 20007KT 10SM CLR 07/M02 A3000 RMK AO2 SLP160 T00721022
VFR 7.8°C / -2.2°C 180º 8kt >10km - Few Clouds 7000ft 1015 - KILG 192351Z 18008KT 10SM FEW070 08/M02 A3000 RMK AO2 SLP158 T00781022 10106 20072 53001
VFR 7.8°C / -2.8°C 200º 6kt >10km - Broken Clouds 7000ft 1015 - KILG 192251Z 20006KT 10SM BKN070 08/M03 A3000 RMK AO2 SLP158 T00781028
VFR 8.3°C / -2.8°C 200º 4kt >10km - Clear 1015 - KILG 192151Z 20004KT 10SM CLR 08/M03 A2999 RMK AO2 SLP155 T00831028
VFR 10.6°C / -3.3°C 210º 9kt >10km - Clear 1015 - KILG 192051Z 21009KT 10SM CLR 11/M03 A2999 RMK AO2 SLP157 T01061033 56013
VFR 10°C / -3.3°C 210º 12kt >10km - Clear 1015 - KILG 191951Z 21012KT 10SM CLR 10/M03 A3000 RMK AO2 SLP159 T01001033
VFR 10°C / -3.3°C 220º 10kt >10km - Clear 1016 - KILG 191851Z 22010KT 10SM CLR 10/M03 A3002 RMK AO2 SLP166 T01001033
VFR 9.4°C / -3.9°C 230º 15kt Gust 21kt >10km - Clear 1017 - KILG 191751Z 23015G21KT 10SM CLR 09/M04 A3003 RMK AO2 SLP170 6//// T00941039
VFR 7.8°C / -3.9°C 220º 14kt Gust 22kt >10km - Clear - KILG 191659Z 22014G22KT 10SM CLR 08/M04 A3009 RMK AO2 T00781039 PNO $
°C / °C - Clear - KILG 191651Z CLR RMK AO2 SLPNO PNO $
VFR 5°C / -2.8°C 210º 14kt Gust 20kt >10km - Clear 1019 - KILG 191551Z 21014G20KT 10SM CLR 05/M03 A3010 RMK AO2 PRESFR SLP190 T00501028 PNO $
VFR 3.9°C / -2.8°C 200º 12kt Gust 16kt >10km - Clear - KILG 191505Z 20012G16KT 10SM CLR 04/M03 A3013 RMK AO2 T00391028 PNO $
VFR 1.1°C / -3.9°C 180º 6kt >10km - Scattered Clouds 13000ft 1020 - KILG 191451Z 18006KT 10SM SCT130 01/M04 A3015 RMK AO2 SLP207 6//// T00111039 PNO $
VFR 1.1°C / -3.9°C 180º 6kt >10km - Scattered Clouds 13000ft - KILG 191406Z 18006KT 10SM SCT130 01/M04 A3015 RMK AO2 T00111039 PNO $
VFR 0°C / -4.4°C 170º 9kt >10km - Clear 1021 - KILG 191251Z AUTO 17009KT 9SM CLR 00/M04 A3016 RMK AO2 SLP212 T00001044 $
VFR 0°C / -5°C 180º 11kt >10km - Broken Clouds 11000ft 1021 - KILG 191151Z AUTO 18011KT 10SM BKN110 00/M05 A3015 RMK AO2 SLP212 T00001050 10000 21039 55009 $
VFR -0.6°C / -5.6°C 170º 12kt >10km - Overcast 11000ft 1021 - KILG 191051Z AUTO 17012KT 10SM OVC110 M01/M06 A3015 RMK AO2 SLP211 T10061056 $
VFR -1.1°C / -6.1°C 170º 11kt >10km - Few Clouds 10000ft 1021 - KILG 190951Z AUTO 17011KT 10SM FEW100 M01/M06 A3016 RMK AO2 SLP212 T10111061 $
VFR -2.2°C / -7.2°C 170º 5kt >10km - Clear 1022 - KILG 190851Z AUTO 17005KT 10SM CLR M02/M07 A3018 RMK AO2 SLP221 T10221072 58005 $
VFR -2.8°C / -7.2°C 220º 3kt >10km - Clear 1022 - KILG 190751Z AUTO 22003KT 10SM CLR M03/M07 A3020 RMK AO2 SLP226 T10281072 $
VFR -2.2°C / -7.2°C 230º 4kt >10km - Clear 1022 - KILG 190651Z AUTO 23004KT 10SM CLR M02/M07 A3019 RMK AO2 SLP224 T10221072 $
VFR -2.2°C / -7.2°C 200º 3kt >10km - Clear 1022 - KILG 190551Z AUTO 20003KT 10SM CLR M02/M07 A3020 RMK AO2 SLP226 T10221072 10011 21039 51002 $
VFR -2.8°C / -7.8°C 170º 4kt >10km - Clear 1022 - KILG 190451Z AUTO 17004KT 10SM CLR M03/M08 A3019 RMK AO2 SLP224 T10281078 400501039 $
VFR -2.8°C / -7.8°C 220º 3kt >10km - Clear 1022 - KILG 190351Z 22003KT 10SM CLR M03/M08 A3020 RMK AO2 SLP227 T10281078 $

VFR

7.2°C / -2.2°C

[Больше]
Ветер 200º 7kt
Видимость >10km
Погода -
Облачность Clear
Давление 1016
Изменить -
Необработанный KILG 200051Z 20007KT 10SM CLR 07/M02 A3000 RMK AO2 SLP160 T00721022

VFR

7.8°C / -2.2°C

[Больше]
Ветер 180º 8kt
Видимость >10km
Погода -
Облачность Few Clouds 7000ft
Давление 1015
Изменить -
Необработанный KILG 192351Z 18008KT 10SM FEW070 08/M02 A3000 RMK AO2 SLP158 T00781022 10106 20072 53001

VFR

7.8°C / -2.8°C

[Больше]
Ветер 200º 6kt
Видимость >10km
Погода -
Облачность Broken Clouds 7000ft
Давление 1015
Изменить -
Необработанный KILG 192251Z 20006KT 10SM BKN070 08/M03 A3000 RMK AO2 SLP158 T00781028

VFR

8.3°C / -2.8°C

[Больше]
Ветер 200º 4kt
Видимость >10km
Погода -
Облачность Clear
Давление 1015
Изменить -
Необработанный KILG 192151Z 20004KT 10SM CLR 08/M03 A2999 RMK AO2 SLP155 T00831028

VFR

10.6°C / -3.3°C

[Больше]
Ветер 210º 9kt
Видимость >10km
Погода -
Облачность Clear
Давление 1015
Изменить -
Необработанный KILG 192051Z 21009KT 10SM CLR 11/M03 A2999 RMK AO2 SLP157 T01061033 56013

VFR

10°C / -3.3°C

[Больше]
Ветер 210º 12kt
Видимость >10km
Погода -
Облачность Clear
Давление 1015
Изменить -
Необработанный KILG 191951Z 21012KT 10SM CLR 10/M03 A3000 RMK AO2 SLP159 T01001033

VFR

10°C / -3.3°C

[Больше]
Ветер 220º 10kt
Видимость >10km
Погода -
Облачность Clear
Давление 1016
Изменить -
Необработанный KILG 191851Z 22010KT 10SM CLR 10/M03 A3002 RMK AO2 SLP166 T01001033

VFR

9.4°C / -3.9°C

[Больше]
Ветер 230º 15kt Gust 21kt
Видимость >10km
Погода -
Облачность Clear
Давление 1017
Изменить -
Необработанный KILG 191751Z 23015G21KT 10SM CLR 09/M04 A3003 RMK AO2 SLP170 6//// T00941039

VFR

7.8°C / -3.9°C

[Больше]
Ветер 220º 14kt Gust 22kt
Видимость >10km
Погода -
Облачность Clear
Давление
Изменить -
Необработанный KILG 191659Z 22014G22KT 10SM CLR 08/M04 A3009 RMK AO2 T00781039 PNO $

°C / °C

[Больше]
Ветер
Видимость
Погода -
Облачность Clear
Давление
Изменить -
Необработанный KILG 191651Z CLR RMK AO2 SLPNO PNO $

VFR

5°C / -2.8°C

[Больше]
Ветер 210º 14kt Gust 20kt
Видимость >10km
Погода -
Облачность Clear
Давление 1019
Изменить -
Необработанный KILG 191551Z 21014G20KT 10SM CLR 05/M03 A3010 RMK AO2 PRESFR SLP190 T00501028 PNO $

VFR

3.9°C / -2.8°C

[Больше]
Ветер 200º 12kt Gust 16kt
Видимость >10km
Погода -
Облачность Clear
Давление
Изменить -
Необработанный KILG 191505Z 20012G16KT 10SM CLR 04/M03 A3013 RMK AO2 T00391028 PNO $

VFR

1.1°C / -3.9°C

[Больше]
Ветер 180º 6kt
Видимость >10km
Погода -
Облачность Scattered Clouds 13000ft
Давление 1020
Изменить -
Необработанный KILG 191451Z 18006KT 10SM SCT130 01/M04 A3015 RMK AO2 SLP207 6//// T00111039 PNO $

VFR

1.1°C / -3.9°C

[Больше]
Ветер 180º 6kt
Видимость >10km
Погода -
Облачность Scattered Clouds 13000ft
Давление
Изменить -
Необработанный KILG 191406Z 18006KT 10SM SCT130 01/M04 A3015 RMK AO2 T00111039 PNO $

VFR

0°C / -4.4°C

[Больше]
Ветер 170º 9kt
Видимость >10km
Погода -
Облачность Clear
Давление 1021
Изменить -
Необработанный KILG 191251Z AUTO 17009KT 9SM CLR 00/M04 A3016 RMK AO2 SLP212 T00001044 $

VFR

0°C / -5°C

[Больше]
Ветер 180º 11kt
Видимость >10km
Погода -
Облачность Broken Clouds 11000ft
Давление 1021
Изменить -
Необработанный KILG 191151Z AUTO 18011KT 10SM BKN110 00/M05 A3015 RMK AO2 SLP212 T00001050 10000 21039 55009 $

VFR

-0.6°C / -5.6°C

[Больше]
Ветер 170º 12kt
Видимость >10km
Погода -
Облачность Overcast 11000ft
Давление 1021
Изменить -
Необработанный KILG 191051Z AUTO 17012KT 10SM OVC110 M01/M06 A3015 RMK AO2 SLP211 T10061056 $

VFR

-1.1°C / -6.1°C

[Больше]
Ветер 170º 11kt
Видимость >10km
Погода -
Облачность Few Clouds 10000ft
Давление 1021
Изменить -
Необработанный KILG 190951Z AUTO 17011KT 10SM FEW100 M01/M06 A3016 RMK AO2 SLP212 T10111061 $

VFR

-2.2°C / -7.2°C

[Больше]
Ветер 170º 5kt
Видимость >10km
Погода -
Облачность Clear
Давление 1022
Изменить -
Необработанный KILG 190851Z AUTO 17005KT 10SM CLR M02/M07 A3018 RMK AO2 SLP221 T10221072 58005 $

VFR

-2.8°C / -7.2°C

[Больше]
Ветер 220º 3kt
Видимость >10km
Погода -
Облачность Clear
Давление 1022
Изменить -
Необработанный KILG 190751Z AUTO 22003KT 10SM CLR M03/M07 A3020 RMK AO2 SLP226 T10281072 $

VFR

-2.2°C / -7.2°C

[Больше]
Ветер 230º 4kt
Видимость >10km
Погода -
Облачность Clear
Давление 1022
Изменить -
Необработанный KILG 190651Z AUTO 23004KT 10SM CLR M02/M07 A3019 RMK AO2 SLP224 T10221072 $

VFR

-2.2°C / -7.2°C

[Больше]
Ветер 200º 3kt
Видимость >10km
Погода -
Облачность Clear
Давление 1022
Изменить -
Необработанный KILG 190551Z AUTO 20003KT 10SM CLR M02/M07 A3020 RMK AO2 SLP226 T10221072 10011 21039 51002 $

VFR

-2.8°C / -7.8°C

[Больше]
Ветер 170º 4kt
Видимость >10km
Погода -
Облачность Clear
Давление 1022
Изменить -
Необработанный KILG 190451Z AUTO 17004KT 10SM CLR M03/M08 A3019 RMK AO2 SLP224 T10281078 400501039 $

VFR

-2.8°C / -7.8°C

[Больше]
Ветер 220º 3kt
Видимость >10km
Погода -
Облачность Clear
Давление 1022
Изменить -
Необработанный KILG 190351Z 22003KT 10SM CLR M03/M08 A3020 RMK AO2 SLP227 T10281078 $

TAF для Wilmington Manor (KILG)

From till


From till Wind 200º 5kt. Visibility 10km or more. Scattered Clouds 7000ft. Broken Clouds 25000ft.
From till Wind variable 3kt. Visibility 10km or more. Light Rain . Overcast 4000ft.
From till Wind variable 2kt. Visibility 8000m. Light Rain . Overcast 1500ft.
From till Wind 320º 5kt. Visibility 3200m. Light Rain . Overcast 800ft.
From till Wind 350º 8kt. Gust 18kt. Visibility 1200m. Light Snow . Overcast 800ft.
From till Wind 340º 13kt. Gust 21kt. Visibility 4800m. Light Snow . Overcast 2000ft.
From till Wind 340º 13kt. Gust 22kt. Visibility 10km or more. Broken Clouds 6000ft.

Необработанный: KILG 192339Z 2000/2024 20005KT P6SM SCT070 BKN250 FM200300 VRB03KT P6SM -RA OVC040 FM200700 VRB02KT 5SM -RA OVC015 FM200900 32005KT 2SM -RA OVC008 FM201300 35008G18KT 3/4SM -SN OVC008 FM201700 34013G21KT 3SM -SN OVC020 FM201900 34013G22KT P6SM BKN060

Радарный и сверхкраткосрочный прогноз осадков для Wilmington Manor

Морось
Незначительные
Умеренные
Сильные
Очень Сильные
Град

Индикатор местности находится на Wilmington Manor. Анимация показывает радар осадков за последний час, а также прогноз погоды для 1h. Морось или небольшой снег могут быть невидимы для радара. Интенсивность осадков имеет цветовую кодировку - от светло-голубого до оранжевого.

Текущие спутниковые изображения для Wilmington Manor, США

Указатель местности находится на Wilmington Manor. [Больше]

Спутниковое изображение в реальном времени сочетает в себе видимый свет в дневное время с инфракрасным излучением в ночное время. Ночью изображение получается не темным, так как инфракрасное излучение может обнаружить разницу температур. К сожалению, низкие облака и туман трудно отличить от температуры у поверхности земли и поэтому могут быть почти незаметны ночью. Спутниковые снимки Meteosat для Европы обновляются каждые 5 минут в режиме реального времени.Снимки GOES-16/GOES-17 (Северная и Южная Америка) и Химавари (Азия) обновляются каждые 10 минут.